Flag for Romania Weather past 2 weeks in Bucharest, Romania

Now
57 °F

Sunny.


Feels Like: 55 °F
Forecast: 49 / 69 °F
Wind: 10 mph from West

Location: Bucharest / Imh

Current Time: Oct 20, 2014 at 11:28:50 AM

Latest Report: Oct 20, 2014 at 11:00 AM


Visibility: 10 mi

Pressure: 30.12 "Hg

Humidity: 72%

Dew point: 48 °F

Location of BucharestLocation

Historic Weather in Bucharest — Graph

°F

Bucharest temperature yesterday

Maximum temperature yesterday: 61 °F (at 3:30 PM)
Minimum temperature yesterday: 45 °F (at 7:00 AM)
Average temperature yesterday: 53 °F

Past Weeks' High & Low Weather Summary

 TemperatureHumidityPressure
High75 °F (Oct 15, 3:00 PM)100% (Oct 7, 8:00 AM)30.45 "Hg (Oct 7, 8:00 AM)
Low41 °F (Oct 6, 4:30 AM)24% (Oct 5, 3:30 PM)29.77 "Hg (Oct 18, 12:00 AM)
Average58 °F80%30.12 "Hg
* Reported Oct 5 10:00 AM — Oct 20 10:30 AM, Bucharest, Weather by CustomWeather, © 2014

Note: Actual official high and low records may vary slightly from our data, if they occured in-between our weather recording intervals... More about our weather records

Advertising

Bucharest weather history for previous 24 hours

 ConditionsComfort  
Time TempWeatherWind HumidityBarometerVisibility
10:30 AM
Oct 20
57 °FSunny.9 mph72%30.15 "Hg10 mi
10:00 AM54 °FPassing clouds.9 mph77%30.15 "HgN/A
9:30 AM52 °FClear.8 mph82%30.15 "Hg5 mi
9:00 AM48 °FClear.8 mph94%30.15 "Hg5 mi
8:30 AM46 °FFog.5 mph93%30.15 "Hg2 mi
6:00 AM45 °FClear.5 mph100%30.18 "Hg5 mi
5:30 AM45 °FClear.5 mph100%30.18 "Hg5 mi
5:00 AM45 °FClear.3 mph100%30.21 "Hg5 mi
4:30 AM45 °FClear.5 mph100%30.21 "Hg5 mi
4:00 AM45 °FClear.3 mph93%30.21 "Hg5 mi
3:30 AM45 °FClear.2 mph100%30.24 "Hg5 mi
3:00 AM45 °FClear.3 mph93%30.24 "Hg5 mi
2:00 AM46 °FClear.1 mph87%30.27 "Hg10 mi
1:30 AM48 °FClear.No wind87%30.27 "Hg10 mi
1:00 AM50 °FClear.No wind82%30.30 "Hg10 mi
12:30 AM50 °FClear.No wind82%30.30 "Hg10 mi
12:00 AM50 °FClear.No wind82%30.30 "Hg10 mi
11:30 PM
Oct 19
52 °FClear.1 mph77%30.30 "Hg10 mi
11:00 PM52 °FClear.No wind77%30.33 "Hg10 mi
10:30 PM52 °FClear.No wind77%30.33 "Hg10 mi
10:00 PM52 °FPassing clouds.3 mph77%30.33 "HgN/A
9:30 PM52 °FClear.1 mph77%30.33 "Hg10 mi
9:00 PM52 °FClear.3 mph77%30.33 "Hg10 mi
8:30 PM54 °FClear.2 mph72%30.33 "Hg10 mi
8:00 PM54 °FClear.3 mph72%30.36 "Hg10 mi
7:30 PM55 °FClear.3 mph67%30.36 "Hg10 mi
7:00 PM55 °FSunny.3 mph67%30.36 "Hg10 mi
6:30 PM57 °FSunny.5 mph63%30.36 "Hg10 mi
6:00 PM59 °FSunny.5 mph55%30.36 "Hg10 mi
5:30 PM59 °FPassing clouds.2 mph55%30.36 "HgN/A
5:00 PM59 °FScattered clouds.3 mph55%30.36 "HgN/A
4:30 PM61 °FScattered clouds.2 mph52%30.36 "HgN/A
4:00 PM61 °FScattered clouds.2 mph52%30.39 "HgN/A
3:30 PM61 °FPassing clouds.1 mph52%30.39 "HgN/A
3:00 PM59 °FPassing clouds.3 mph55%30.39 "HgN/A
2:30 PM59 °FSunny.1 mph51%30.42 "Hg10 mi
2:00 PM57 °FSunny.3 mph55%30.42 "Hg10 mi
1:30 PM57 °FSunny.1 mph55%30.42 "Hg10 mi
1:00 PM57 °FSunny.2 mph55%30.45 "Hg10 mi
12:30 PM55 °FSunny.2 mph59%30.45 "Hg10 mi
12:00 PM54 °FPassing clouds.2 mph63%30.45 "HgN/A
11:30 AM54 °FPassing clouds.1 mph63%30.45 "HgN/A
11:00 AM52 °FScattered clouds.2 mph62%30.45 "HgN/A
Weather by CustomWeather, © 2014

See weather overviewHow to use our weather pages